[[{"header":{"parameterUnit":"m.s-1","parameterCategory":1,"la1":30.2991,"la2":30.254,"lo1":-89.0895,"lo2":-89.0444,"dy":0.0017,"dx":0.0017,"nx":28,"ny":28,"refTime":"2024-03-17T03:00:00:Z","depth":0,"parameterNumber":2,"parameterNumberName":"U-component_of_WINDS"},"data":[0,0,0,0,0,0,0,0,0,0,0,0,0,0,0,0,0,0,0,0,0,0,0,0,0,0,0,0,0,0,0,0,0,0,0,0,0,0,0,0,0,0,0,0,0,0,0,0,0,0,0,0,0,0,0,0,0,0,-2.1086,-2.1085,0,-2.1046,-2.1046,-2.1045,-2.0978,-2.0977,-2.0975,-2.0974,-2.0937,-2.0937,-2.0937,0,0,0,0,0,0,0,0,0,0,0,0,0,-2.1106,-2.1106,-2.1086,-2.1085,-2.1085,-2.1046,-2.1046,-2.1045,-2.0978,-2.0977,-2.0975,-2.0974,-2.0937,-2.0937,-2.0937,0,0,0,0,0,0,0,0,0,0,0,0,0,-2.1085,-2.1106,-2.1086,-2.1047,-2.1043,-2.1046,-2.1046,-2.1045,-2.0978,-2.0977,-2.0975,-2.0973,-2.0937,-2.0937,-2.0937,-2.0977,0,0,-2.0938,-2.0938,0,0,0,0,0,0,0,0,-2.1086,-2.1084,-2.1053,-2.1049,-2.1045,-2.1015,-2.1039,-2.1022,-2.0979,-2.1003,-2.0974,-2.0972,-2.0964,-2.0962,-2.0959,-2.0975,-2.0973,-2.0938,-2.0938,-2.0938,-2.0938,0,0,0,0,0,0,0,-2.1088,-2.1085,-2.107,-2.1052,-2.1048,-2.1032,-2.1027,-2.1035,-2.0995,-2.1001,-2.0996,-2.0992,-2.0962,-2.0959,-2.0958,-2.0973,-2.0938,-2.0938,-2.0938,-2.0938,-2.102,-2.1022,0,0,0,0,0,0,-2.1094,-2.1087,-2.1071,-2.1069,-2.1061,-2.1033,-2.1027,-2.1027,-2.0995,-2.0988,-2.0993,-2.0989,-2.096,-2.0958,-2.0956,-2.1001,-2.0938,-2.0939,-2.0939,-2.1018,-2.1021,-2.1023,0,0,0,0,0,0,-2.1095,-2.1094,-2.1073,-2.1077,-2.1073,-2.1035,-2.1034,-2.1027,-2.1024,-2.0989,-2.0982,-2.0998,-2.0958,-2.0956,-2.0972,-2.0999,-2.0939,-2.0939,-2.1016,-2.1019,-2.1022,-2.1092,0,0,0,0,0,0,-2.1096,-2.1094,-2.1108,-2.1077,-2.1073,-2.1089,-2.1036,-2.1027,-2.1024,-2.1018,-2.0991,-2.0985,-2.0956,-2.0972,-2.0972,-2.0998,-2.0939,-2.1013,-2.1017,-2.1021,-2.1087,-2.1097,-2.1105,0,0,0,0,0,-2.1097,-2.113,-2.1109,-2.1108,-2.109,-2.1091,-2.1088,-2.1053,-2.1026,-2.1041,-2.1019,-2.0986,-2.0996,-2.0974,-2.0974,-2.1001,-2.1011,-2.1016,-2.102,-2.1083,-2.1095,-2.1105,0,0,0,0,0,0,-2.1167,-2.1125,-2.1102,-2.1126,-2.1112,-2.1079,-2.1096,-2.1067,-2.1062,-2.1056,-2.1014,-2.1009,-2.1031,-2.1017,-2.0994,-2.1038,-2.0999,-2.1003,-2.1046,-2.1057,-2.1066,-2.107,-2.0939,0,0,0,0,0,-2.1184,-2.1188,-2.1152,-2.1177,-2.1171,-2.1135,-2.1134,-2.1109,-2.1093,-2.1087,-2.1066,-2.1053,-2.1053,-2.1054,-2.1052,-2.1084,-2.1078,-2.1102,-2.1111,-2.1119,-2.1124,-2.1141,-2.1151,-2.1038,-2.1038,-2.1037,0,0,-2.1222,-2.12,-2.1205,-2.119,-2.1177,-2.1182,-2.1131,-2.1138,-2.1142,-2.1089,-2.1103,-2.1087,-2.1069,-2.1094,-2.1104,-2.1083,-2.1154,-2.1125,-2.1131,-2.1132,-2.1146,-2.1157,-2.1167,-2.1041,-2.104,-2.104,0,0,-2.1294,-2.1277,-2.1296,-2.1283,-2.1262,-2.1238,-2.1243,-2.1214,-2.1201,-2.1214,-2.1174,-2.1178,-2.1179,-2.1169,-2.1163,-2.1231,-2.1201,-2.1231,-2.128,-2.1296,-2.1305,-2.1313,-2.1338,-2.1347,-2.1236,-2.1236,-2.1236,0,-2.1343,-2.1349,-2.131,-2.132,-2.1315,-2.1265,-2.1285,-2.1274,-2.1255,-2.1253,-2.123,-2.123,-2.1215,-2.1237,-2.1253,-2.125,-2.1255,-2.1235,-2.1307,-2.1314,-2.1321,-2.1344,-2.1354,-2.124,-2.124,-2.1239,-2.1239,0,-2.1412,-2.1416,-2.1434,-2.1415,-2.1412,-2.1428,-2.1391,-2.1393,-2.1368,-2.1346,-2.1361,-2.134,-2.1334,-2.1337,-2.1312,-2.1355,-2.1343,-2.1314,-2.1275,-2.1336,-2.1358,-2.1366,-2.1246,-2.1244,-2.1243,-2.1242,0,0,-2.1527,-2.1486,-2.1493,-2.1484,-2.1458,-2.1461,-2.1474,-2.1466,-2.1469,-2.1457,-2.1468,-2.147,-2.1442,-2.1437,-2.141,-2.1425,-2.1481,-2.1394,-2.1393,-2.1412,-2.1528,-2.1551,-2.1562,-2.146,-2.1462,-2.1463,-2.153,0,-2.1594,-2.1613,-2.1578,-2.1606,-2.161,-2.1562,-2.1574,-2.1559,-2.1539,-2.1541,-2.1519,-2.1521,-2.1485,-2.1481,-2.1493,-2.1471,-2.1504,-2.1466,-2.1471,-2.1472,-2.1478,-2.1573,-2.1597,-2.1661,-2.1538,-2.1539,-2.154,0,-2.1675,-2.1666,-2.1694,-2.1666,-2.1666,-2.1677,-2.1667,-2.1669,-2.1652,-2.1636,-2.163,-2.1598,-2.161,-2.1571,-2.1587,-2.1562,-2.1562,-2.1552,-2.1553,-2.1554,-2.1511,-2.1577,-2.168,-2.1691,-2.1553,-2.1552,-2.1551,0,-2.1758,-2.1753,-2.1769,-2.1762,-2.173,-2.1738,-2.1725,-2.1706,-2.1704,-2.1696,-2.1694,-2.1688,-2.1685,-2.1681,-2.165,-2.1624,-2.167,-2.1628,-2.1659,-2.166,-2.1672,-2.1672,-2.1779,-2.167,-2.167,-2.167,-2.167,0,-2.1837,-2.1856,-2.1805,-2.1816,-2.1836,-2.1796,-2.1817,-2.1799,-2.1783,-2.1789,-2.1748,-2.1755,-2.1712,-2.1715,-2.1691,-2.1708,-2.1707,-2.1696,-2.1689,-2.17,-2.1702,-2.1701,-2.1696,-2.1672,-2.1672,-2.1671,-2.1671,0,-2.1933,-2.19,-2.1915,-2.1882,-2.1874,-2.1891,-2.1863,-2.1872,-2.1849,-2.1858,-2.1858,-2.1822,-2.1824,-2.1791,-2.1786,-2.177,-2.1799,-2.1784,-2.1805,-2.18,-2.1834,-2.1831,-2.1944,-2.1957,-2.184,-2.1841,-2.1842,0,-2.1987,-2.2,-2.1969,-2.1969,-2.1958,-2.196,-2.1957,-2.1918,-2.1917,-2.1898,-2.191,-2.1907,-2.1903,-2.1908,-2.1883,-2.1879,-2.1864,-2.1904,-2.1863,-2.1874,-2.1866,-2.1866,-2.1868,-2.1913,-2.1914,-2.1915,-2.1916,0,-2.2085,-2.2068,-2.2065,-2.2056,-2.2054,-2.2046,-2.2035,-2.2038,-2.1995,-2.1996,-2.1997,-2.1994,-2.1988,-2.1987,-2.1978,-2.1965,-2.1935,-2.1929,-2.1936,-2.1948,-2.196,-2.1955,-2.1829,-2.1927,-2.1926,-2.1925,-2.1925,-2.1924,-2.2162,-2.2172,-2.2152,-2.215,-2.2137,-2.2128,-2.2134,-2.2112,-2.2111,-2.2103,-2.2079,-2.2084,-2.2067,-2.2051,-2.2042,-2.2045,-2.2026,-2.2036,-2.2039,-2.2042,-2.2049,-2.1958,-2.2044,-2.2043,-2.2043,-2.2043,-2.2042,0,-2.226,-2.2244,-2.2242,-2.2228,-2.2227,-2.2196,-2.2182,-2.2184,-2.2187,-2.2173,-2.217,-2.2171,-2.2169,-2.2143,-2.2139,-2.2147,-2.2133,-2.2147,-2.2147,-2.2145,-2.2066,-2.2061,-2.2159,-2.2159,-2.2159,-2.2159,-2.2159,-2.2159,-2.231,-2.2326,-2.2306,-2.2315,-2.2299,-2.2302,-2.2297,-2.2288,-2.2277,-2.2279,-2.2277,-2.226,-2.2241,-2.2235,-2.2233,-2.2225,-2.2226,-2.2246,-2.2234,-2.2161,-2.215,-2.2139,-2.2134,-2.2246,-2.2246,-2.2312,-2.2312,-2.2313]},{"header":{"parameterUnit":"m.s-1","parameterCategory":1,"la1":30.2991,"la2":30.254,"lo1":-89.0895,"lo2":-89.0444,"dy":0.0017,"dx":0.0017,"nx":28,"ny":28,"refTime":"2024-03-17T03:00:00:Z","depth":0,"parameterNumber":3,"parameterNumberName":"V-component_of_WINDS"},"data":[0,0,0,0,0,0,0,0,0,0,0,0,0,0,0,0,0,0,0,0,0,0,0,0,0,0,0,0,0,0,0,0,0,0,0,0,0,0,0,0,0,0,0,0,0,0,0,0,0,0,0,0,0,0,0,0,0,0,0.2084,0.2084,0,0.2104,0.2105,0.2105,0.2117,0.2117,0.2117,0.2117,0.2138,0.2138,0.2139,0,0,0,0,0,0,0,0,0,0,0,0,0,0.2054,0.2054,0.2084,0.2084,0.2084,0.2104,0.2105,0.2105,0.2117,0.2117,0.2117,0.2117,0.2138,0.2138,0.2139,0,0,0,0,0,0,0,0,0,0,0,0,0,0.207,0.2055,0.2084,0.2093,0.2094,0.2104,0.2105,0.2105,0.2117,0.2117,0.2117,0.2117,0.2137,0.2138,0.2139,0.2142,0,0,0.2141,0.2142,0,0,0,0,0,0,0,0,0.2069,0.2071,0.2091,0.2092,0.2093,0.2108,0.2102,0.2117,0.2117,0.2108,0.2117,0.2117,0.2128,0.2129,0.2133,0.2143,0.2144,0.2141,0.2142,0.2142,0.2142,0,0,0,0,0,0,0,0.2068,0.207,0.2092,0.2091,0.2093,0.2095,0.2098,0.2105,0.2117,0.2109,0.211,0.2112,0.2128,0.2132,0.2134,0.2144,0.2141,0.2142,0.2142,0.2143,0.2156,0.2156,0,0,0,0,0,0,0.2065,0.2069,0.2091,0.2092,0.2081,0.2096,0.2098,0.2103,0.2117,0.2119,0.2112,0.2113,0.2131,0.2133,0.2134,0.2138,0.2142,0.2143,0.2143,0.2156,0.2156,0.2156,0,0,0,0,0,0,0.2065,0.2067,0.209,0.2081,0.2084,0.2096,0.2102,0.2104,0.2108,0.212,0.2122,0.2114,0.2131,0.2133,0.214,0.2139,0.2143,0.2144,0.2157,0.2156,0.2156,0.2146,0,0,0,0,0,0,0.2064,0.2067,0.2069,0.2081,0.2085,0.2096,0.2102,0.2104,0.2109,0.211,0.2122,0.2124,0.2131,0.2139,0.2141,0.214,0.2144,0.2157,0.2157,0.2156,0.2147,0.2146,0.2145,0,0,0,0,0,0.2063,0.2065,0.2069,0.2071,0.2087,0.2096,0.2098,0.2106,0.2109,0.211,0.2118,0.2123,0.2139,0.2139,0.2141,0.2141,0.2157,0.2157,0.2156,0.2147,0.2146,0.2145,0,0,0,0,0,0,0.2052,0.2067,0.2071,0.2078,0.2085,0.2098,0.21,0.2105,0.2112,0.2113,0.2123,0.2126,0.2131,0.2137,0.2137,0.2144,0.2148,0.2149,0.2141,0.214,0.2139,0.2137,0.2145,0,0,0,0,0,0.2051,0.2057,0.2069,0.2074,0.2077,0.2088,0.2092,0.2098,0.2106,0.211,0.2118,0.2126,0.2132,0.2136,0.2143,0.2148,0.215,0.2149,0.2148,0.2147,0.2147,0.2149,0.2148,0.2156,0.2156,0.2156,0,0,0.2048,0.2057,0.206,0.2072,0.2079,0.2084,0.2091,0.2097,0.2101,0.2111,0.2117,0.2123,0.2132,0.2138,0.214,0.2143,0.2145,0.2147,0.2146,0.2146,0.2149,0.2148,0.2147,0.2155,0.2156,0.2156,0,0,0.2045,0.2053,0.2057,0.2063,0.2073,0.208,0.2081,0.2092,0.2097,0.2103,0.211,0.2115,0.2126,0.2132,0.2137,0.2135,0.214,0.2137,0.2133,0.2134,0.2134,0.2133,0.2132,0.2132,0.2137,0.2137,0.2137,0,0.204,0.2049,0.2058,0.2064,0.2068,0.2077,0.2081,0.2087,0.2098,0.2101,0.2104,0.2117,0.2124,0.213,0.213,0.2133,0.2134,0.2136,0.2133,0.2133,0.2133,0.2131,0.2131,0.2137,0.2137,0.2137,0.2137,0,0.2042,0.2048,0.205,0.2061,0.2066,0.207,0.208,0.2084,0.2089,0.2095,0.2101,0.2109,0.2118,0.212,0.2125,0.2126,0.2127,0.2131,0.2135,0.2131,0.213,0.213,0.2136,0.2136,0.2136,0.2136,0,0,0.2035,0.2049,0.205,0.2054,0.2065,0.207,0.2074,0.2082,0.2085,0.2092,0.2096,0.2105,0.2108,0.2113,0.2119,0.2121,0.2118,0.2124,0.2125,0.2122,0.2119,0.2115,0.2115,0.2121,0.2121,0.2121,0.2118,0,0.2033,0.2042,0.205,0.2055,0.206,0.2068,0.2072,0.2079,0.2085,0.2089,0.2096,0.2102,0.2106,0.2109,0.2111,0.2118,0.2117,0.2118,0.2124,0.2124,0.2121,0.2115,0.2111,0.2108,0.2118,0.2118,0.2118,0,0.2033,0.204,0.2046,0.2055,0.2057,0.2061,0.2068,0.2073,0.208,0.2084,0.2089,0.2095,0.21,0.2103,0.2109,0.211,0.2112,0.2116,0.2116,0.2117,0.212,0.2115,0.2107,0.2106,0.2117,0.2117,0.2117,0,0.2026,0.2036,0.2041,0.2045,0.2056,0.2058,0.2063,0.207,0.2074,0.208,0.2083,0.2089,0.2093,0.2098,0.2105,0.2107,0.211,0.2114,0.2113,0.2112,0.2113,0.2113,0.2105,0.2115,0.2115,0.2115,0.2115,0,0.2024,0.2027,0.2038,0.2041,0.2044,0.2053,0.2056,0.2061,0.2068,0.2071,0.2079,0.2082,0.2092,0.2096,0.2102,0.2105,0.2107,0.211,0.2111,0.2109,0.2108,0.2111,0.2111,0.2115,0.2115,0.2115,0.2115,0,0.2017,0.2024,0.203,0.204,0.2042,0.2044,0.2052,0.2055,0.2061,0.2065,0.2067,0.2076,0.2081,0.2089,0.2096,0.21,0.2103,0.2105,0.21,0.2101,0.2099,0.2099,0.2092,0.2091,0.2102,0.2102,0.2102,0,0.2015,0.2017,0.2027,0.203,0.2034,0.2039,0.2042,0.205,0.2054,0.2062,0.2063,0.2069,0.2074,0.2082,0.2089,0.2095,0.2097,0.2094,0.2098,0.2095,0.2096,0.2096,0.2096,0.2094,0.2093,0.2093,0.2093,0,0.201,0.2013,0.2018,0.2024,0.2028,0.2033,0.2039,0.2041,0.205,0.2053,0.2058,0.2062,0.2069,0.2075,0.2081,0.2086,0.2091,0.2092,0.2092,0.2089,0.2086,0.2087,0.2097,0.2092,0.2092,0.2092,0.2092,0.2092,0.2005,0.2007,0.2014,0.2019,0.2024,0.2028,0.2031,0.2037,0.2041,0.2048,0.2052,0.2057,0.2063,0.2072,0.2076,0.208,0.2082,0.2082,0.2082,0.2082,0.208,0.2085,0.2081,0.2081,0.2081,0.2081,0.2081,0,0.2,0.2005,0.2009,0.2016,0.202,0.2024,0.203,0.2033,0.2037,0.2042,0.2046,0.2052,0.2057,0.2064,0.2069,0.207,0.2073,0.2071,0.2071,0.2072,0.2079,0.2078,0.2069,0.2069,0.2069,0.2069,0.2069,0.2069,0.1998,0.2002,0.2006,0.2011,0.2016,0.202,0.2023,0.2027,0.2031,0.2037,0.2041,0.2045,0.2051,0.2056,0.2061,0.2063,0.2064,0.2062,0.2064,0.207,0.2072,0.2073,0.2072,0.2062,0.2062,0.2057,0.2057,0.2057]}]]